Location: Clairmont
(55.2667°N, 118.8000°W)
Time: 14:41:29
(UTC+00:00)

N. Korean satellite - Pass Details

Date: 01 November 2020
Orbit: 453 x 504 km, 97.2° (Epoch: 29 November)

Event Time Altitude Azimuth Distance (km) Brightness Sun altitude
Rises 01:16:29 0° 196° (SSW) 2,525 10.6 -8.8°
Reaches altitude 10° 01:18:50 10° 211° (SSW) 1,642 9.9 -9.1°
Maximum altitude 01:21:43 24° 266° (W) 1,032 9.3 -9.5°
Drops below altitude 10° 01:24:36 10° 322° (NW) 1,631 9.6 -9.9°
Sets 01:26:56 0° 337° (NNW) 2,504 10.3 -10.2°
